H1 CPF 2 NER 2024 10 8 9 282 01 glonass144 H2 2207501 9144 52984 2024 10 8 0 0 0 2024 10 11 23 45 0 900 1 1 0 0 0 1 H9 10 0 60591 0.00000 0 14739665.322 -18619558.623 -9277507.732 10 0 60591 900.00000 0 15352022.300 -19375152.057 -6254255.851 10 0 60591 1800.00000 0 15647556.032 -19896476.778 -3109369.134 10 0 60591 2700.00000 0 15655820.268 -20136078.056 95967.330 10 0 60591 3600.00000 0 15416392.018 -20055332.369 3299443.539 10 0 60591 4500.00000 0 14976985.372 -19626216.040 6438840.485 10 0 60591 5400.00000 0 14391238.723 -18832641.631 9453240.044 10 0 60591 6300.00000 0 13716270.269 -17671306.243 12284205.000 10 0 60591 7200.00000 0 13010105.943 -16152016.625 14876906.350 10 0 60591 8100.00000 0 12329088.727 -14297478.023 17181176.452 10 0 60591 9000.00000 0 11725378.374 -12142556.050 19152468.500 10 0 60591 9900.00000 0 11244646.249 -9733042.677 20752704.861 10 0 60591 10800.00000 0 10924061.287 -7123977.682 21950999.304 10 0 60591 11700.00000 0 10790650.531 -4377594.899 22724240.617 10 0 60591 12600.00000 0 10860101.908 -1560977.674 23057527.770 10 0 60591 13500.00000 0 11136058.474 1256480.555 22944449.425 10 0 60591 14400.00000 0 11609933.030 4005706.987 22387203.290 10 0 60591 15300.00000 0 12261250.674 6620564.353 21396553.457 10 0 60591 16200.00000 0 13058505.163 9040343.637 19991626.533 10 0 60591 17100.00000 0 13960493.957 11212033.181 18199550.007 10 0 60591 18000.00000 0 14918077.027 13092271.680 16054938.935 10 0 60591 18900.00000 0 15876287.002 14648905.282 13599239.659 10 0 60591 19800.00000 0 16776703.411 15862084.944 10879941.814 10 0 60591 20700.00000 0 17559992.494 16724858.796 7949672.473 10 0 60591 21600.00000 0 18168506.662 17243234.936 4865188.602 10 0 60591 22500.00000 0 18548834.631 17435711.834 1686286.238 10 0 60591 23400.00000 0 18654194.706 17332295.724 -1525353.238 10 0 60591 24300.00000 0 18446569.643 16973045.813 -4707357.753 10 0 60591 25200.00000 0 17898491.872 16406208.183 -7797877.011 10 0 60591 26100.00000 0 16994402.098 15686016.819 -10736788.862 10 0 60591 27000.00000 0 15731522.011 14870254.519 -13466875.548 10 0 60591 27900.00000 0 14120202.109 14017676.961 -15934946.182 10 0 60591 28800.00000 0 12183727.778 13185409.264 -18092882.667 10 0 60591 29700.00000 0 9957589.668 12426425.774 -19898587.792 10 0 60591 30600.00000 0 7488247.141 11787220.463 -21316816.155 10 0 60591 31500.00000 0 4831435.110 11305767.339 -22319870.916 10 0 60591 32400.00000 0 2050084.055 11009857.971 -22888152.148 10 0 60591 33300.00000 0 -788060.589 10915887.171 -23010545.566 10 0 60591 34200.00000 0 -3613020.555 11028138.809 -22684643.650 10 0 60591 35100.00000 0 -6355260.764 11338602.341 -21916794.603 10 0 60591 36000.00000 0 -8948347.545 11827327.989 -20721978.017 10 0 60591 36900.00000 0 -11331478.049 12463305.463 -19123509.721 10 0 60591 37800.00000 0 -13451775.337 13205828.725 -17152581.676 10 0 60591 38700.00000 0 -15266253.555 14006288.529 -14847646.190 10 0 60591 39600.00000 0 -16743371.566 14810316.111 -12253656.969 10 0 60591 40500.00000 0 -17864111.017 15560186.475 -9421182.448 10 0 60591 41400.00000 0 -18622534.990 16197378.634 -6405409.485 10 0 60591 42300.00000 0 -19025805.523 16665183.547 -3265057.838 10 0 60591 43200.00000 0 -19093661.317 16911248.679 -61227.573 10 0 60591 44100.00000 0 -18857379.774 16889950.981 3143797.175 10 0 60591 45000.00000 0 -18358269.303 16564497.682 6287763.871 10 0 60591 45900.00000 0 -17645757.478 15908666.162 9309662.387 10 0 60591 46800.00000 0 -16775157.320 14908109.715 12150907.093 10 0 60591 47700.00000 0 -15805207.172 13561174.606 14756467.256 10 0 60591 48600.00000 0 -14795488.442 11879194.499 17075924.286 10 0 60591 49500.00000 0 -13803830.107 9886250.290 19064436.172 10 0 60591 50400.00000 0 -12883808.657 7618405.595 20683591.588 10 0 60591 51300.00000 0 -12082447.655 5122449.707 21902138.523 10 0 60591 52200.00000 0 -11438212.199 2454199.921 22696574.880 10 0 60591 53100.00000 0 -10979381.022 -323567.057 23051591.026 10 0 60591 54000.00000 0 -10722863.061 -3143469.981 22960356.993 10 0 60591 54900.00000 0 -10673506.912 -5936068.232 22424649.689 10 0 60591 55800.00000 0 -10823931.291 -8632493.598 21454818.122 10 0 60591 56700.00000 0 -11154883.229 -11167061.606 20069587.339 10 0 60591 57600.00000 0 -11636109.144 -13479756.109 18295704.362 10 0 60591 58500.00000 0 -12227702.818 -15518485.742 16167432.100 10 0 60591 59400.00000 0 -12881874.644 -17241020.012 13725899.815 10 0 60591 60300.00000 0 -13545068.926 -18616525.488 11018321.286 10 0 60591 61200.00000 0 -14160341.315 -19626638.669 8097094.366 10 0 60591 62100.00000 0 -14669897.253 -20266030.922 5018798.037 10 0 60591 63000.00000 0 -15017685.051 -20542441.680 1843105.219 10 0 60591 63900.00000 0 -15151934.384 -20476178.024 -1368368.333 10 0 60591 64800.00000 0 -15027532.661 -20099101.131 -4553257.176 10 0 60591 65700.00000 0 -14608137.990 -19453141.576 -7649658.284 10 0 60591 66600.00000 0 -13867938.058 -18588405.547 -10597338.216 10 0 60591 67500.00000 0 -12792978.803 -17560951.490 -13338911.333 10 0 60591 68400.00000 0 -11382004.635 -16430330.921 -15820965.382 10 0 60591 69300.00000 0 -9646772.521 -15256997.392 -17995111.598 10 0 60591 70200.00000 0 -7611824.383 -14099693.407 -19818938.001 10 0 60591 71100.00000 0 -5313725.246 -13012926.193 -21256846.429 10 0 60591 72000.00000 0 -2799797.269 -12044639.554 -22280756.209 10 0 60591 72900.00000 0 -126401.204 -11234180.783 -22870660.074 10 0 60591 73800.00000 0 2643163.906 -10610649.004 -23015020.995 10 0 60591 74700.00000 0 5441055.660 -10191695.119 -22711001.721 10 0 60591 75600.00000 0 8197478.189 -9982824.218 -21964522.323 10 0 60591 76500.00000 0 10843359.003 -9977229.864 -20790144.431 10 0 60591 77400.00000 0 13313000.928 -10156166.946 -19210784.415 10 0 60591 78300.00000 0 15546598.365 -10489846.748 -17257261.216 10 0 60591 79200.00000 0 17492512.766 -10938815.570 -14967687.949 10 0 60591 80100.00000 0 19109212.406 -11455757.571 -12386719.603 10 0 60591 81000.00000 0 20366795.865 -11987644.351 -9564672.184 10 0 60591 81900.00000 0 21248036.332 -12478139.102 -6556531.272 10 0 60591 82800.00000 0 21748904.247 -12870152.304 -3420870.302 10 0 60591 83700.00000 0 21878548.043 -13108439.720 -218700.669 10 0 60591 84600.00000 0 21658735.747 -13142131.863 2987722.967 10 0 60591 85500.00000 0 21122783.018 -12927087.301 6136117.986 10 0 60592 0.00000 0 20314014.823 -12427970.118 9165385.166 10 0 60592 900.00000 0 19283826.918 -11619963.420 12016793.796 10 0 60592 1800.00000 0 18089431.248 -10490047.619 14635113.489 10 0 60592 2700.00000 0 16791379.683 -9037789.084 16969676.567 10 0 60592 3600.00000 0 15450971.554 -7275606.978 18975347.197 10 0 60592 4500.00000 0 14127653.281 -5228507.071 20613381.245 10 0 60592 5400.00000 0 12876518.507 -2933293.641 21852161.358 10 0 60592 6300.00000 0 11746012.288 -437291.930 22667794.557 10 0 60592 7200.00000 0 10775934.011 2203366.393 23044562.209 10 0 60592 8100.00000 0 9995820.991 4925824.687 22975214.947 10 0 60592 9000.00000 0 9423778.825 7662864.871 22461107.771 10 0 60592 9900.00000 0 9065806.127 10345456.750 21512173.214 10 0 60592 10800.00000 0 8915641.004 12905389.402 20146733.105 10 0 60592 11700.00000 0 8955135.188 15277877.475 18391152.146 10 0 60592 12600.00000 0 9155140.207 17404035.975 16279339.082 10 0 60592 13500.00000 0 9476868.806 19233122.287 13852103.956 10 0 60592 14400.00000 0 9873675.216 20724453.272 11156382.445 10 0 60592 15300.00000 0 10293180.255 21848918.211 8244340.865 10 0 60592 16200.00000 0 10679652.668 22590024.643 5172377.826 10 0 60592 17100.00000 0 10976546.966 22944433.191 2000040.718 10 0 60592 18000.00000 0 11129090.963 22921958.396 -1211122.746 10 0 60592 18900.00000 0 11086813.581 22545034.827 -4398756.123 10 0 60592 19800.00000 0 10805905.436 21847670.082 -7500905.919 10 0 60592 20700.00000 0 10251311.234 20873927.967 -10457229.520 10 0 60592 21600.00000 0 9398463.912 19676005.142 -13210175.334 10 0 60592 22500.00000 0 8234585.251 18311981.852 -15706111.464 10 0 60592 23400.00000 0 6759495.824 16843341.488 -17896379.994 10 0 60592 24300.00000 0 4985897.782 15332363.629 -19738255.500 10 0 60592 25200.00000 0 2939116.282 13839500.786 -21195788.212 10 0 60592 26100.00000 0 656308.325 12420849.896 -22240514.593 10 0 60592 27000.00000 0 -1814829.562 11125825.609 -22852020.828 10 0 60592 27900.00000 0 -4417802.100 9995133.820 -23018347.697 10 0 60592 28800.00000 0 -7089432.583 9059131.176 -22736228.485 10 0 60592 29700.00000 0 -9762268.825 8336639.744 -22011155.061 10 0 60592 30600.00000 0 -12367177.472 7834266.608 -20857270.615 10 0 60592 31500.00000 0 -14836018.250 7546256.649 -19297091.163 10 0 60592 32400.00000 0 -17104286.282 7454883.884 -17361061.336 10 0 60592 33300.00000 0 -19113611.908 7531363.845 -15086953.408 10 0 60592 34200.00000 0 -20814013.365 7737247.120 -12519121.733 10 0 60592 35100.00000 0 -22165808.249 8026233.696 -9707627.780 10 0 60592 36000.00000 0 -23141104.187 8346329.811 -6707253.626 10 0 60592 36900.00000 0 -23724807.078 8642254.510 -3576424.089 10 0 60592 37800.00000 0 -23915105.845 8857992.589 -376059.567 10 0 60592 38700.00000 0 -23723414.936 8939384.650 2831617.115 10 0 60592 39600.00000 0 -23173778.790 8836643.737 5984295.653 10 0 60592 40500.00000 0 -22301765.234 8506691.482 9020790.692 10 0 60592 41400.00000 0 -21152896.119 7915214.804 11882227.808 10 0 60592 42300.00000 0 -19780682.758 7038356.349 14513179.963 10 0 60592 43200.00000 0 -18244349.817 5863967.692 16862732.785 10 0 60592 44100.00000 0 -16606343.811 4392372.862 18885458.871 10 0 60592 45000.00000 0 -14929730.741 2636610.407 20542283.328 10 0 60592 45900.00000 0 -13275591.307 622143.898 21801225.233 10 0 60592 46800.00000 0 -11700521.601 -1613947.283 22638002.153 10 0 60592 47700.00000 0 -10254342.326 -4024263.736 23036487.506 10 0 60592 48600.00000 0 -8978110.481 -6552815.507 22989013.181 10 0 60592 49500.00000 0 -7902514.785 -9137114.757 22496512.518 10 0 60592 50400.00000 0 -7046720.186 -11710546.396 21568501.414 10 0 60592 51300.00000 0 -6417708.325 -14204920.192 20222897.939 10 0 60592 52200.00000 0 -6010140.562 -16553100.380 18485683.539 10 0 60592 53100.00000 0 -5806748.747 -18691605.356 16390411.508 10 0 60592 54000.00000 0 -5779237.294 -20563071.004 13977571.055 10 0 60592 54900.00000 0 -5889659.019 -22118476.347 11293817.851 10 0 60592 55800.00000 0 -6092207.472 -23319039.475 8391084.525 10 0 60592 56700.00000 0 -6335351.041 -24137704.881 5325586.979 10 0 60592 57600.00000 0 -6564219.453 -24560159.789 2156744.577 10 0 60592 58500.00000 0 -6723142.391 -24585336.332 -1053965.638 10 0 60592 59400.00000 0 -6758232.956 -24225377.588 -4244198.955 10 0 60592 60300.00000 0 -6619906.408 -23505067.946 -7351954.252 10 0 60592 61200.00000 0 -6265226.699 -22460750.650 -10316782.659 10 0 60592 62100.00000 0 -5659980.223 -21138777.199 -13080969.600 10 0 60592 63000.00000 0 -4780387.319 -19593553.123 -15590666.488 10 0 60592 63900.00000 0 -3614377.136 -17885261.971 -17796949.106 10 0 60592 64800.00000 0 -2162369.799 -16077363.142 -19656781.231 10 0 60592 65700.00000 0 -437530.606 -14233968.908 -21133863.808 10 0 60592 66600.00000 0 1534516.644 -12417211.268 -22199352.349 10 0 60592 67500.00000 0 3716507.091 -10684709.697 -22832427.908 10 0 60592 68400.00000 0 6060850.387 -9087246.606 -23020709.956 10 0 60592 69300.00000 0 8511390.492 -7666748.493 -22760502.672 10 0 60592 70200.00000 0 11005536.819 -6454657.698 -22056869.543 10 0 60592 71100.00000 0 13476678.025 -5470763.019 -20923534.657 10 0 60592 72000.00000 0 15856777.550 -4722537.879 -19382612.546 10 0 60592 72900.00000 0 18079042.190 -4205013.020 -17464171.959 10 0 60592 73800.00000 0 20080551.814 -3901187.931 -15205642.320 10 0 60592 74700.00000 0 21804739.841 -3782962.165 -12651074.907 10 0 60592 75600.00000 0 23203620.459 -3812545.570 -9850273.810 10 0 60592 76500.00000 0 24239669.355 -3944285.994 -6857814.379 10 0 60592 77400.00000 0 24887279.478 -4126835.356 -3731969.320 10 0 60592 78300.00000 0 25133731.554 -4305560.681 -533564.348 10 0 60592 79200.00000 0 24979639.752 -4425096.496 2675213.284 10 0 60592 80100.00000 0 24438855.261 -4431929.318 5832029.231 10 0 60592 81000.00000 0 23537833.441 -4276903.970 8875615.177 10 0 60592 81900.00000 0 22314492.845 -3917545.256 11746956.641 10 0 60592 82800.00000 0 20816615.520 -3320096.761 14390432.356 10 0 60592 83700.00000 0 19099856.972 -2461190.897 16754883.508 10 0 60592 84600.00000 0 17225449.966 -1329080.181 18794592.906 10 0 60592 85500.00000 0 15257698.576 75621.725 20470156.217 10 0 60593 0.00000 0 13261367.128 1739719.887 21749229.703 10 0 60593 900.00000 0 11299071.132 3637749.129 22607142.125 10 0 60593 1800.00000 0 9428780.407 5732801.309 23027358.799 10 0 60593 2700.00000 0 7701533.249 7977838.092 23001792.422 10 0 60593 3600.00000 0 6159457.685 10317433.622 22530953.814 10 0 60593 4500.00000 0 4834179.356 12689876.943 21623940.971 10 0 60593 5400.00000 0 3745680.855 15029548.457 20298266.572 10 0 60593 6300.00000 0 2901658.731 17269473.535 18579526.864 10 0 60593 7200.00000 0 2297404.015 19343948.937 16500917.473 10 0 60593 8100.00000 0 1916210.745 21191134.418 14102604.351 10 0 60593 9000.00000 0 1730295.240 22755502.887 11430960.587 10 0 60593 9900.00000 0 1702187.770 23990047.730 8537682.448 10 0 60593 10800.00000 0 1786538.558 24858155.476 5478800.382 10 0 60593 11700.00000 0 1932262.529 25335065.294 2313602.966 10 0 60593 12600.00000 0 2084932.763 25408853.541 -896506.157 10 0 60593 13500.00000 0 2189321.705 25080901.112 -4089196.659 10 0 60593 14400.00000 0 2191982.515 24365822.746 -7202422.300 10 0 60593 15300.00000 0 2043760.731 23290859.973 -10175630.272 10 0 60593 16200.00000 0 1702128.911 21894762.007 -12950945.094 10 0 60593 17100.00000 0 1133244.011 20226200.559 -15474303.308 10 0 60593 18000.00000 0 313638.680 18341784.431 -17696515.970 10 0 60593 18900.00000 0 -768527.064 16303756.838 -19574237.378 10 0 60593 19800.00000 0 -2112708.746 14177471.980 -21070820.289 10 0 60593 20700.00000 0 -3705749.035 12028756.858 -22157040.139 10 0 60593 21600.00000 0 -5522189.631 9921269.290 -22811673.497 10 0 60593 22500.00000 0 -7525112.107 7913963.191 -23021918.913 10 0 60593 23400.00000 0 -9667473.765 6058767.709 -22783651.520 10 0 60593 24300.00000 0 -11893883.508 4398577.610 -22101506.135 10 0 60593 25200.00000 0 -14142743.891 2965639.051 -20988787.036 10 0 60593 26100.00000 0 -16348669.795 1780398.060 -19467206.141 10 0 60593 27000.00000 0 -18445082.345 850859.220 -17566454.777 10 0 60593 27900.00000 0 -20366869.055 172480.374 -15323617.623 10 0 60593 28800.00000 0 -22052998.320 -271393.770 -12782440.714 10 0 60593 29700.00000 0 -23448978.217 -508579.186 -9992468.393 10 0 60593 30600.00000 0 -24509056.243 -576623.420 -7008066.817 10 0 60593 31500.00000 0 -25198067.671 -520962.261 -3887354.045 10 0 60593 32400.00000 0 -25492855.241 -392742.134 -691058.552 10 0 60593 33300.00000 0 -25383201.265 -246402.206 2518670.537 10 0 60593 34200.00000 0 -24872234.044 -137120.076 5679477.406 10 0 60593 35100.00000 0 -23976292.795 -118230.338 8730013.323 10 0 60593 36000.00000 0 -22724258.229 -238725.962 11611126.271 10 0 60593 36900.00000 0 -21156378.240 -540948.457 14267003.206 10 0 60593 37800.00000 0 -19322639.200 -1058564.295 16646243.182 10 0 60593 38700.00000 0 -17280751.877 -1814912.621 18702841.325 10 0 60593 39600.00000 0 -15093836.647 -2821793.353 20397065.672 10 0 60593 40500.00000 0 -12827904.524 -4078746.199 21696211.337 10 0 60593 41400.00000 0 -10549238.353 -5572850.597 22575218.882 10 0 60593 42300.00000 0 -8321782.093 -7279055.011 23017146.444 10 0 60593 43200.00000 0 -6204645.229 -9161022.344 23013487.762 10 0 60593 44100.00000 0 -4249824.240 -11172457.055 22564330.971 10 0 60593 45000.00000 0 -2500233.946 -13258859.978 21678355.631 10 0 60593 45900.00000 0 -988128.731 -15359639.365 20372668.156 10 0 60593 46800.00000 0 266022.302 -17410492.057 18672478.399 10 0 60593 47700.00000 0 1254160.666 -19345957.426 16610622.840 10 0 60593 48600.00000 0 1980739.111 -21102039.376 14226942.426 10 0 60593 49500.00000 0 2462293.829 -22618788.435 11567525.678 10 0 60593 50400.00000 0 2726506.238 -23842737.108 8683830.314 10 0 60593 51300.00000 0 2810793.556 -24729087.136 5631698.985 10 0 60593 52200.00000 0 2760487.091 -25243557.026 2470287.016 10 0 60593 53100.00000 0 2626674.661 -25363811.847 -739077.883 10 0 60593 54000.00000 0 2463797.960 -25080414.239 -3934082.357 10 0 60593 54900.00000 0 2327106.434 -24397255.388 -7052637.670 10 0 60593 55800.00000 0 2270075.709 -23331446.335 -10034089.713 10 0 60593 56700.00000 0 2341900.603 -21912672.652 -12820404.739 10 0 60593 57600.00000 0 2585169.939 -20182038.201 -15357307.017 10 0 60593 58500.00000 0 3033823.074 -18190445.366 -17595345.367 10 0 60593 59400.00000 0 3711476.298 -15996578.912 -19490866.924 10 0 60593 60300.00000 0 4630191.769 -13664577.478 -21006878.302 10 0 60593 61200.00000 0 5789742.916 -11261490.139 -22113776.561 10 0 60593 62100.00000 0 7177409.194 -8854624.571 -22789935.069 10 0 60593 63000.00000 0 8768310.570 -6508898.004 -23022132.290 10 0 60593 63900.00000 0 10526269.097 -4284302.081 -22805814.684 10 0 60593 64800.00000 0 12405162.473 -2233587.809 -22145188.309 10 0 60593 65700.00000 0 14350713.457 -400267.448 -21053137.109 10 0 60593 66600.00000 0 16302640.323 1182983.288 -19550969.445 10 0 60593 67500.00000 0 18197078.072 2495456.456 -17667997.862 10 0 60593 68400.00000 0 19969168.473 3529030.136 -15440960.530 10 0 60593 69300.00000 0 21555709.686 4288249.151 -12913296.067 10 0 60593 70200.00000 0 22897753.638 4789866.666 -10134286.505 10 0 60593 71100.00000 0 23943041.556 5061868.006 -7158085.883 10 0 60593 72000.00000 0 24648174.948 5142020.074 -4042654.392 10 0 60593 72900.00000 0 24980430.747 5076009.842 -848619.856 10 0 60593 73800.00000 0 24919144.596 4915252.711 2361910.234 10 0 60593 74700.00000 0 24456604.731 4714465.290 5526562.051 10 0 60593 75600.00000 0 23598419.840 4529106.731 8583909.767 10 0 60593 76500.00000 0 22363346.541 4412797.914 11474666.890 10 0 60593 77400.00000 0 20782584.933 4414828.121 14142831.342 10 0 60593 78300.00000 0 18898572.813 4577854.643 16536762.422 10 0 60593 79200.00000 0 16763329.883 4935892.082 18610169.567 10 0 60593 80100.00000 0 14436421.612 5512675.576 20322994.793 10 0 60593 81000.00000 0 11982627.716 6320466.147 21642173.164 10 0 60593 81900.00000 0 9469411.817 7359347.856 22542258.074 10 0 60593 82800.00000 0 6964296.587 8617045.897 23005900.718 10 0 60593 83700.00000 0 4532251.931 10069273.329 23024175.815 10 0 60593 84600.00000 0 2233202.908 11680592.437 22596748.290 10 0 60593 85500.00000 0 119758.891 13405755.664 21731878.278 10 0 60594 0.00000 0 -1764743.565 15191471.330 20446264.612 10 0 60594 900.00000 0 -3387805.612 16978523.030 18764728.654 10 0 60594 1800.00000 0 -4728872.752 18704153.599 16719745.601 10 0 60594 2700.00000 0 -5779941.614 20304619.045 14350828.872 10 0 60594 3600.00000 0 -6545639.773 21717804.835 11703779.700 10 0 60594 4500.00000 0 -7042776.634 22885797.202 8829814.398 10 0 60594 5400.00000 0 -7299384.067 23757302.326 5784584.910 10 0 60594 6300.00000 0 -7353286.852 24289812.053 2627110.402 10 0 60594 7200.00000 0 -7250262.796 24451424.840 -581360.224 10 0 60594 8100.00000 0 -7041869.804 24222244.461 -3778533.358 10 0 60594 9000.00000 0 -6783031.542 23595296.318 -6902280.393 10 0 60594 9900.00000 0 -6529483.895 22576921.197 -9891848.366 10 0 60594 10800.00000 0 -6335190.735 21186628.120 -12689047.474 10 0 60594 11700.00000 0 -6249839.179 19456410.758 -15239391.668 10 0 60594 12600.00000 0 -6316521.494 17429554.558 -17493169.211 10 0 60594 13500.00000 0 -6569703.176 15158983.354 -19406421.489 10 0 60594 14400.00000 0 -7033564.716 12705213.830 -20941810.131 10 0 60594 15300.00000 0 -7720788.840 10134002.950 -22069354.728 10 0 60594 16200.00000 0 -8631846.121 7513786.506 -22767026.104 10 0 60594 17100.00000 0 -9754810.654 4913015.855 -23021183.015 10 0 60594 18000.00000 0 -11065714.910 2397504.299 -22826843.317 10 0 60594 18900.00000 0 -12529429.909 27894.074 -22187784.013 10 0 60594 19800.00000 0 -14101034.371 -2142650.165 -21116468.023 10 0 60594 20700.00000 0 -15727615.611 -4070425.093 -19633799.038 10 0 60594 21600.00000 0 -17350426.438 -5722767.227 -17768709.304 10 0 60594 22500.00000 0 -18907307.058 -7079160.911 -15557588.592 10 0 60594 23400.00000 0 -20335269.539 -8131830.572 -13043565.910 10 0 60594 24300.00000 0 -21573135.460 -8885793.977 -10275658.558 10 0 60594 25200.00000 0 -22564115.048 -9358376.228 -7307805.888 10 0 60594 26100.00000 0 -23258218.655 -9578207.135 -4197807.563 10 0 60594 27000.00000 0 -23614398.669 -9583746.560 -1006188.051 10 0 60594 27900.00000 0 -23602331.621 -9421402.272 2204989.521 10 0 60594 28800.00000 0 -23203765.715 -9143321.910 5373336.050 10 0 60594 29700.00000 0 -22413377.636 -8804954.173 8437351.327 10 0 60594 30600.00000 0 -21239103.425 -8462483.665 11337617.054 10 0 60594 31500.00000 0 -19701930.440 -8170248.609 14017944.688 10 0 60594 32400.00000 0 -17835160.062 -7978250.831 16426456.186 10 0 60594 33300.00000 0 -15683172.743 -7929862.871 18516577.454 10 0 60594 34200.00000 0 -13299747.483 -8059828.337 20247926.331 10 0 60594 35100.00000 0 -10746005.876 -8392638.904 21587079.307 10 0 60594 36000.00000 0 -8088065.904 -8941355.314 22508203.652 10 0 60594 36900.00000 0 -5394502.128 -9706921.217 22993544.226 10 0 60594 37800.00000 0 -2733716.355 -10677998.158 23033756.894 10 0 60594 38700.00000 0 -171326.165 -11831328.649 22628083.132 10 0 60594 39600.00000 0 2232322.362 -13132612.560 21784363.034 10 0 60594 40500.00000 0 4424416.558 -14537861.097 20518886.623 10 0 60594 41400.00000 0 6361621.795 -15995173.062 18856085.961 10 0 60594 42300.00000 0 8011629.731 -17446860.633 16828073.207 10 0 60594 43200.00000 0 9354247.104 -18831837.402 14474032.407 10 0 60594 44100.00000 0 10381980.673 -20088170.228 11839475.390 10 0 60594 45000.00000 0 11100094.380 -21155689.243 8975374.701 10 0 60594 45900.00000 0 11526136.543 -21978547.411 5937189.000 10 0 60594 46800.00000 0 11688956.741 -22507622.493 2783798.561 10 0 60594 47700.00000 0 11627253.480 -22702660.228 -423629.346 10 0 60594 48600.00000 0 11387713.400 -22534067.788 -3622823.707 10 0 60594 49500.00000 0 11022820.326 -21984280.749 -6751618.876 10 0 60594 50400.00000 0 10588426.595 -21048644.348 -9749165.780 10 0 60594 51300.00000 0 10141189.588 -19735770.036 -12557121.194 10 0 60594 52200.00000 0 9735982.398 -18067350.326 -15120791.242 10 0 60594 53100.00000 0 9423389.041 -16077437.840 -17390205.936 10 0 60594 54000.00000 0 9247391.259 -13811217.120 -19321102.986 10 0 60594 54900.00000 0 9243346.047 -11323319.313 -20875800.821 10 0 60594 55800.00000 0 9436340.776 -8675749.354 -22023943.001 10 0 60594 56700.00000 0 9839996.839 -5935511.683 -22743098.850 10 0 60594 57600.00000 0 10455773.617 -3172033.398 -23019208.038 10 0 60594 58500.00000 0 11272803.315 -454492.406 -22846860.003 10 0 60594 59400.00000 0 12268264.523 2150837.862 -22229402.456 10 0 60594 60300.00000 0 13408279.394 4583116.286 -21178876.641 10 0 60594 61200.00000 0 14649296.900 6789228.907 -19715780.543 10 0 60594 62100.00000 0 15939903.861 8725755.207 -17868664.695 10 0 60594 63000.00000 0 17222987.073 10360524.155 -15673568.691 10 0 60594 63900.00000 0 18438154.829 11673695.807 -13173309.796 10 0 60594 64800.00000 0 19524314.984 12658324.461 -10416638.103 10 0 60594 65700.00000 0 20422300.045 13320381.464 -7457275.491 10 0 60594 66600.00000 0 21077427.803 13678238.722 -4352858.056 10 0 60594 67500.00000 0 21441888.866 13761636.953 -1163803.689 10 0 60594 68400.00000 0 21476860.089 13610184.492 2047872.146 10 0 60594 69300.00000 0 21154254.668 13271452.243 5219768.333 10 0 60594 70200.00000 0 20458035.440 12798747.217 8290313.427 10 0 60594 71100.00000 0 19385036.578 12248660.282 11199960.255 10 0 60594 72000.00000 0 17945259.800 11678492.791 13892336.467 10 0 60594 72900.00000 0 16161633.384 11143671.262 16315329.024 10 0 60594 73800.00000 0 14069244.691 10695259.142 18422082.333 10 0 60594 74700.00000 0 11714078.704 10377670.030 20171891.745 10 0 60594 75600.00000 0 9151315.276 10226677.757 21530976.513 10 0 60594 76500.00000 0 6443255.629 10267805.927 22473118.759 10 0 60594 77400.00000 0 3656963.500 10515163.497 22980157.584 10 0 60594 78300.00000 0 861717.583 10970774.352 23042330.154 10 0 60594 79200.00000 0 -1873620.726 11624428.415 22658454.175 10 0 60594 80100.00000 0 -4483217.069 12454060.411 21835948.886 10 0 60594 81000.00000 0 -6906745.225 13426640.787 20590694.326 10 0 60594 81900.00000 0 -9091638.674 14499542.317 18946731.228 10 0 60594 82800.00000 0 -10995020.972 15622326.352 16935806.579 10 0 60594 83700.00000 0 -12585236.190 16738875.264 14596772.479 10 0 60594 84600.00000 0 -13842916.811 17789783.187 11974848.519 10 0 60594 85500.00000 0 -14761545.192 18714905.976 9120760.504 99